Regional Weather Roundup
Issued by NWS

Home | Current Version | Previous Version | Text Only | Print | Product List | Glossary On
Versions: 1 2 3 4 5 6 7 8 9 10 11 12 13 14 15 16 17 18 19 20 21 22 23 24 25 26 27 28 29 30 31 32 33 34 35 36 37 38 39 40 41 42 43 44 45 46 47 48 49 50
000
ASUS44 KJAN 050710
RWRMS

MISSISSIPPI HOURLY WEATHER ROUNDUP
NATIONAL WEATHER SERVICE JACKSON MS
200 AM CDT TUE MAY 05 2015

NOTE: "FAIR: INDICATES FEW OR NO CLOUDS BELOW 12,000 FEET WITH NO
SIGNIFICANT WEATHER AND/OR OBSTRUCTIONS TO VISIBILITY.

MSZ001>002-007>008-010>013-018>021-025>028-034>036-050800-
NORTHWEST MISSISSIPPI

CITY           SKY/WX    TMP DP  RH WIND       PRES   REMARKS
CLARKSDALE     MOCLDY    68  59  73 CALM      30.18S
CLEVELAND      FAIR      69  61  75 SE5       30.17S
GREENWOOD      CLEAR     66  56  70 S5        30.18S
GREENVILLE     CLEAR     69  59  70 S6        30.16R
OLIVE BRANCH   MOCLDY    64  57  77 CALM      30.20S
OXFORD         LGT RAIN  63  54  72 SE6       30.21F
TUNICA         SUNNY     64  57  77 SE5       30.18S
$$

MSZ003>006-009-014>017-022>024-029>033-037>039-050800-
NORTHEAST MISSISSIPPI

CITY           SKY/WX    TMP DP  RH WIND       PRES   REMARKS
COLUMBUS AFB   NOT AVBL
GOLDN TRIANGLE   N/A     61  54  77 SE5       30.20S
STARKVILLE     FAIR      61  54  77 CALM      30.21S
TUPELO         CLEAR     60  54  80 NE3       30.21S
$$

MSZ040-058-050800-
CENTRAL MISSISSIPPI

CITY           SKY/WX    TMP DP  RH WIND       PRES   REMARKS
JACKSON INTL   CLEAR     64  59  83 S5        30.18S
JACKSON HAWKNS CLEAR     65  59  81 SE5       30.18S
MERIDIAN KEY   CLEAR     59  55  87 CALM      30.20F
MERIDIAN NAS   CLEAR     60  53  77 CALM      30.21S
RAYMOND        FAIR      64  59  82 CALM      30.17S
VICKSBURG      CLEAR     63  60  90 SE3       30.16S
$$

MSZ059>079-050800-
SOUTH MISSISSIPPI

CITY           SKY/WX    TMP DP  RH WIND       PRES   REMARKS
BROOKHAVEN     FAIR      64  64 100 CALM      30.18F
HATTIESBURG    CLEAR     60  58  92 CALM      30.18F
MCCOMB         CLEAR     64  63  96 SE3       30.16F
NATCHEZ        CLEAR     66  61  82 S7        30.16S
PINE BELT      CLEAR     57  54  88 CALM      30.19S
$$

MSZ080>082-050800-
COASTAL MISSISSIPPI

CITY           SKY/WX    TMP DP  RH WIND       PRES   REMARKS
BILOXI         CLEAR     73  61  66 SE6       30.15F
PASCAGOULA     CLEAR     57  56  96 CALM      30.17F FOG
GULFPORT       CLEAR     71  60  68 SE10      30.15F
$$


USA.gov is the U.S. government's official web portal to all federal, state and local government web resources and services.